Weather History for Montague, CA

Change the Weather History Date:

Sunday, October 6, 2013

  Actual Average Record
Temperature  
Mean Temperature 54 °F 56 °F  
Max Temperature 77 °F 74 °F 91 °F (1980)
Min Temperature 30 °F 38 °F 26 °F (1957)
Degree Days  
Heating Degree Days 11 10  
Month to date heating degree days 85 53  
Since 1 July heating degree days 232 195  
Cooling Degree Days 0 0  
Month to date cooling degree days 0 0  
Year to date cooling degree days 776 542  
Growing Degree Days 2 (Base 50)    
Moisture  
Dew Point 30 °F    
Average Humidity 50    
Maximum Humidity 89    
Minimum Humidity 18    
Precipitation  
Precipitation 0.00 in 0.01 in 0.30 in (1993)
Month to date precipitation T 0.08  
Year to date precipitation 5.07 11.72  
Sea Level Pressure  
Sea Level Pressure 30.18 in    
Wind  
Wind Speed 2 mph (NE)    
Max Wind Speed 13 mph    
Max Gust Speed 15 mph    
Visibility 10 miles    
Events      
T = Trace of Precipitation, MM = Missing Value Source: NWS Daily Summary

Daily Weather History Graph

Daily Weather History Graph

Search for Another Location

Airport:

Trip Planner

Search our weather history database for the weather conditions in past years. The results will help you decide how hot, cold, wet, or windy it might be!

Date:

Astronomy

Oct. 06, 2013 Rise Set
Actual Time 7:12 AM PDT 6:42 PM PDT
Civil Twilight 6:44 AM PDT 7:10 PM PDT
Nautical Twilight 6:12 AM PDT 7:42 PM PDT
Astronomical Twilight 5:40 AM PDT 8:14 PM PDT
Moon 9:04 AM PDT (10/6) 7:43 PM PDT (10/6)
Length of Visible Light 12h 25m
Length of Day
11h 29m
Waxing Crescent, 4% of the Moon is Illuminated
Oct 6
Waxing Crescent
Oct 11
First Quarter
Oct 18
Full
Oct 26
Last Quarter
Nov 3
New

Hourly Weather History & Observations

Time (PDT) Temp. Windchill Dew Point Humidity Pressure Visibility Wind Dir Wind Speed Gust Speed Precip Events Conditions
12:53 AM 42.1 °F - 30.9 °F 65% 30.26 in 10.0 mi Calm Calm - N/A   Clear
1:53 AM 37.0 °F - 28.9 °F 73% 30.26 in 10.0 mi Calm Calm - N/A   Clear
2:53 AM 37.9 °F - 30.9 °F 76% 30.24 in 10.0 mi Calm Calm - N/A   Clear
3:53 AM 36.0 °F - 28.9 °F 76% 30.23 in 10.0 mi Calm Calm - N/A   Clear
4:53 AM 36.0 °F - 28.9 °F 76% 30.22 in 10.0 mi Calm Calm - N/A   Clear
5:53 AM 30.9 °F - 26.1 °F 82% 30.23 in 10.0 mi Calm Calm - N/A   Clear
6:53 AM 30.9 °F - 26.1 °F 82% 30.25 in 10.0 mi Calm Calm - N/A   Clear
7:53 AM 34.0 °F - 30.0 °F 85% 30.26 in 10.0 mi Calm Calm - N/A   Clear
8:53 AM 45.0 °F - 33.1 °F 63% 30.26 in 10.0 mi Calm Calm - N/A   Clear
9:53 AM 48.9 °F - 34.0 °F 56% 30.25 in 10.0 mi Calm Calm - N/A   Clear
10:53 AM 55.9 °F - 34.0 °F 44% 30.23 in 10.0 mi Calm Calm - N/A   Clear
11:53 AM 63.0 °F - 35.1 °F 35% 30.20 in 10.0 mi Calm Calm - N/A   Clear
12:53 PM 66.9 °F - 28.9 °F 24% 30.17 in 10.0 mi Calm Calm - N/A   Clear
1:53 PM 72.0 °F - 30.0 °F 21% 30.13 in 10.0 mi Variable 3.5 mph - N/A   Clear
2:53 PM 73.9 °F - 30.0 °F 20% 30.10 in 10.0 mi Calm Calm - N/A   Clear
3:53 PM 75.0 °F - 28.9 °F 18% 30.08 in 10.0 mi Calm Calm - N/A   Clear
4:53 PM 75.9 °F - 30.0 °F 19% 30.07 in 10.0 mi WNW 10.4 mph - N/A   Clear
5:53 PM 72.0 °F - 32.0 °F 23% 30.08 in 9.0 mi WNW 5.8 mph - N/A   Clear
6:53 PM 64.9 °F - 27.0 °F 24% 30.09 in 10.0 mi Calm Calm - N/A   Clear
7:53 PM 55.0 °F - 28.9 °F 37% 30.12 in 10.0 mi East 8.1 mph - N/A   Clear
8:53 PM 52.0 °F - 28.9 °F 41% 30.12 in 10.0 mi Calm Calm - N/A   Clear
9:53 PM 48.0 °F - 28.9 °F 48% 30.13 in 10.0 mi NE 3.5 mph - N/A   Clear
10:53 PM 46.0 °F - 30.0 °F 54% 30.12 in 10.0 mi Calm Calm - N/A   Clear
11:53 PM 41.0 °F 39.0 °F 28.9 °F 62% 30.12 in 10.0 mi ESE 3.5 mph - N/A   Clear